Вернуться в каталог

STARLINK-37673

АктивенСвязьVLEO
NORAD 69370·PAYLOAD·🇺🇸 United States

Запущен Jun 4, 2026 с Cape Canaveral Space Force Station

Loading…

Ближайшие Пролёты (ближайшие 24 часа)

TLE

СвежийSource: CelesTrak SupGP

Эпоха: Sep 15, 2026, 03:11 UTC

1 69370C 26123T   26258.13312500  .00037337  00000+0  11035-2 0  2589
2 69370  53.1579 166.7807 0001433 104.2711   1.3918 15.34361441    14

Отслеживайте STARLINK-37673 в реальном времени с AllMySat

Download on the App Store